[[{"header":{"parameterUnit":"m.s-1","parameterCategory":1,"la1":30.2991,"la2":30.254,"lo1":-89.0895,"lo2":-89.0444,"dy":0.0017,"dx":0.0017,"nx":28,"ny":28,"refTime":"2024-10-19T21:00:00:Z","depth":0,"parameterNumber":2,"parameterNumberName":"U-component_of_WINDS"},"data":[0,0,0,0,0,0,0,0,0,0,0,0,0,0,0,0,0,0,0,0,0,0,0,0,0,0,0,0,0,0,0,0,0,0,0,0,0,0,0,0,0,0,0,0,0,0,0,0,0,0,0,0,0,0,0,0,0,0,-1.5859,-1.5859,0,-1.5788,-1.5787,-1.5787,-1.5719,-1.5718,-1.5717,-1.5716,-1.5644,-1.5643,-1.5642,0,0,0,0,0,0,0,0,0,0,0,0,0,-1.5938,-1.5937,-1.5859,-1.5858,-1.5858,-1.5788,-1.5787,-1.5786,-1.5719,-1.5718,-1.5717,-1.5716,-1.5645,-1.5643,-1.5642,0,0,0,0,0,0,0,0,0,0,0,0,0,-1.5889,-1.5937,-1.586,-1.5815,-1.5811,-1.5789,-1.5787,-1.5786,-1.5719,-1.5718,-1.5716,-1.5715,-1.5645,-1.5644,-1.5642,-1.5658,0,0,-1.5637,-1.5636,0,0,0,0,0,0,0,0,-1.5892,-1.5887,-1.5823,-1.5818,-1.5813,-1.5761,-1.5789,-1.5743,-1.5719,-1.5754,-1.5716,-1.5715,-1.5684,-1.5679,-1.5669,-1.5654,-1.5651,-1.5637,-1.5636,-1.5635,-1.5635,0,0,0,0,0,0,0,-1.5896,-1.5889,-1.5831,-1.5822,-1.5816,-1.58,-1.5791,-1.578,-1.5727,-1.5751,-1.5746,-1.5738,-1.5681,-1.5671,-1.5667,-1.565,-1.5637,-1.5635,-1.5634,-1.5634,-1.5648,-1.565,0,0,0,0,0,0,-1.5906,-1.5892,-1.5833,-1.5829,-1.585,-1.58,-1.579,-1.5779,-1.5727,-1.5718,-1.5739,-1.5735,-1.5674,-1.5669,-1.5664,-1.5682,-1.5635,-1.5633,-1.5633,-1.5647,-1.5649,-1.565,0,0,0,0,0,0,-1.5908,-1.5901,-1.5836,-1.5859,-1.585,-1.58,-1.5788,-1.5778,-1.5768,-1.5719,-1.5709,-1.5738,-1.5673,-1.5666,-1.566,-1.5678,-1.5633,-1.5631,-1.5645,-1.5648,-1.5649,-1.5716,0,0,0,0,0,0,-1.591,-1.5902,-1.5907,-1.586,-1.5849,-1.5834,-1.5789,-1.5778,-1.5765,-1.5759,-1.5715,-1.5706,-1.5671,-1.5663,-1.5659,-1.5675,-1.563,-1.5644,-1.5646,-1.5649,-1.5712,-1.572,-1.5727,0,0,0,0,0,-1.5913,-1.5928,-1.5908,-1.5901,-1.5854,-1.5835,-1.5829,-1.5788,-1.5766,-1.5772,-1.5741,-1.5708,-1.5676,-1.5663,-1.5658,-1.5674,-1.5642,-1.5646,-1.5649,-1.5709,-1.5719,-1.5727,0,0,0,0,0,0,-1.5979,-1.5921,-1.5898,-1.5898,-1.5872,-1.5823,-1.5829,-1.5799,-1.5779,-1.5774,-1.5724,-1.5715,-1.5716,-1.5693,-1.568,-1.5688,-1.5655,-1.5657,-1.5703,-1.5712,-1.5719,-1.5726,-1.5629,0,0,0,0,0,-1.5993,-1.5982,-1.5932,-1.5937,-1.5925,-1.588,-1.5869,-1.584,-1.5812,-1.58,-1.5768,-1.5742,-1.5726,-1.5717,-1.57,-1.5708,-1.5699,-1.5716,-1.5724,-1.573,-1.5733,-1.5739,-1.5747,-1.566,-1.566,-1.566,0,0,-1.6023,-1.599,-1.5986,-1.595,-1.5926,-1.5917,-1.5871,-1.5862,-1.5855,-1.5799,-1.5792,-1.5768,-1.5735,-1.5738,-1.5737,-1.5719,-1.5755,-1.5734,-1.5739,-1.5739,-1.5743,-1.5751,-1.5759,-1.5662,-1.5662,-1.5662,0,0,-1.6073,-1.6046,-1.6049,-1.6026,-1.5991,-1.5961,-1.5962,-1.5918,-1.59,-1.5892,-1.5851,-1.5842,-1.5815,-1.5794,-1.578,-1.5824,-1.5795,-1.582,-1.586,-1.5866,-1.5873,-1.5879,-1.5898,-1.5905,-1.5823,-1.5823,-1.5823,0,-1.6115,-1.6099,-1.6054,-1.6049,-1.6035,-1.5983,-1.5987,-1.5967,-1.5928,-1.5921,-1.5901,-1.5868,-1.5842,-1.584,-1.5851,-1.584,-1.5842,-1.5826,-1.5875,-1.5881,-1.5886,-1.5903,-1.591,-1.5827,-1.5826,-1.5826,-1.5825,0,-1.6154,-1.6143,-1.6149,-1.6114,-1.6101,-1.61,-1.6056,-1.6047,-1.602,-1.5992,-1.5986,-1.5953,-1.593,-1.5926,-1.5899,-1.5921,-1.5912,-1.5884,-1.5851,-1.5898,-1.5914,-1.592,-1.5832,-1.583,-1.5829,-1.5828,0,0,-1.6245,-1.6185,-1.6188,-1.6173,-1.6131,-1.6122,-1.6119,-1.6096,-1.6092,-1.6066,-1.6065,-1.6044,-1.6019,-1.6003,-1.5973,-1.5978,-1.6019,-1.595,-1.5948,-1.5967,-1.6045,-1.6069,-1.6077,-1.5997,-1.5998,-1.5999,-1.6049,0,-1.629,-1.6282,-1.6242,-1.6247,-1.6238,-1.6189,-1.6187,-1.6162,-1.6136,-1.6125,-1.6096,-1.6084,-1.605,-1.6041,-1.6043,-1.6013,-1.6034,-1.6009,-1.5998,-1.5998,-1.6011,-1.6084,-1.6108,-1.6157,-1.6055,-1.6055,-1.6056,0,-1.6343,-1.6322,-1.6326,-1.6286,-1.6281,-1.628,-1.6257,-1.6246,-1.6217,-1.6198,-1.6181,-1.6147,-1.6143,-1.611,-1.6105,-1.6089,-1.6082,-1.6067,-1.6068,-1.6067,-1.6032,-1.609,-1.6171,-1.618,-1.6065,-1.6064,-1.6063,0,-1.6413,-1.6385,-1.6385,-1.6372,-1.6325,-1.6326,-1.6306,-1.6275,-1.6265,-1.6245,-1.6238,-1.6218,-1.6207,-1.6193,-1.6155,-1.6134,-1.6156,-1.6119,-1.6142,-1.6143,-1.6151,-1.6152,-1.6236,-1.6141,-1.6141,-1.6141,-1.6141,0,-1.647,-1.6475,-1.6416,-1.6416,-1.6421,-1.6375,-1.6381,-1.6357,-1.6331,-1.6326,-1.6281,-1.6279,-1.6227,-1.6219,-1.6189,-1.6191,-1.6186,-1.6172,-1.6165,-1.6178,-1.618,-1.6175,-1.6172,-1.6143,-1.6142,-1.6142,-1.6142,0,-1.655,-1.651,-1.6507,-1.6463,-1.6452,-1.6458,-1.642,-1.6419,-1.639,-1.6385,-1.6381,-1.6337,-1.6325,-1.6285,-1.6262,-1.6242,-1.6255,-1.6239,-1.6266,-1.6261,-1.6288,-1.6288,-1.6375,-1.6386,-1.6281,-1.6282,-1.6283,0,-1.6591,-1.6594,-1.655,-1.6544,-1.6526,-1.6516,-1.6506,-1.6461,-1.6452,-1.642,-1.6423,-1.6407,-1.6393,-1.6376,-1.6342,-1.6326,-1.6311,-1.6342,-1.6308,-1.6322,-1.6315,-1.6317,-1.6319,-1.6351,-1.6352,-1.6353,-1.6354,0,-1.6668,-1.6649,-1.6635,-1.6616,-1.6604,-1.6586,-1.6566,-1.6563,-1.6513,-1.6506,-1.6493,-1.6482,-1.6459,-1.6446,-1.6424,-1.6404,-1.6372,-1.6365,-1.637,-1.6385,-1.6403,-1.6397,-1.629,-1.6364,-1.6363,-1.6362,-1.6362,-1.6361,-1.6732,-1.6734,-1.6704,-1.6691,-1.6671,-1.6653,-1.6651,-1.6622,-1.661,-1.6589,-1.6563,-1.6554,-1.6527,-1.6494,-1.6477,-1.6471,-1.6453,-1.6459,-1.6462,-1.6465,-1.6473,-1.6401,-1.6466,-1.6466,-1.6465,-1.6465,-1.6465,0,-1.6811,-1.6789,-1.6777,-1.6751,-1.6741,-1.671,-1.6686,-1.6681,-1.6674,-1.665,-1.6637,-1.6624,-1.661,-1.6576,-1.6559,-1.6561,-1.6546,-1.6559,-1.656,-1.6557,-1.6488,-1.6487,-1.6571,-1.6571,-1.6571,-1.6571,-1.6571,-1.6571,-1.6851,-1.6853,-1.683,-1.6822,-1.68,-1.6792,-1.6781,-1.6766,-1.6747,-1.6734,-1.6723,-1.67,-1.6673,-1.6655,-1.6642,-1.6632,-1.663,-1.6648,-1.6634,-1.6571,-1.6561,-1.6551,-1.655,-1.6647,-1.6647,-1.6704,-1.6704,-1.6705]},{"header":{"parameterUnit":"m.s-1","parameterCategory":1,"la1":30.2991,"la2":30.254,"lo1":-89.0895,"lo2":-89.0444,"dy":0.0017,"dx":0.0017,"nx":28,"ny":28,"refTime":"2024-10-19T21:00:00:Z","depth":0,"parameterNumber":3,"parameterNumberName":"V-component_of_WINDS"},"data":[0,0,0,0,0,0,0,0,0,0,0,0,0,0,0,0,0,0,0,0,0,0,0,0,0,0,0,0,0,0,0,0,0,0,0,0,0,0,0,0,0,0,0,0,0,0,0,0,0,0,0,0,0,0,0,0,0,0,-0.7635,-0.7635,0,-0.7654,-0.7654,-0.7654,-0.7707,-0.7708,-0.7709,-0.771,-0.7729,-0.7728,-0.7728,0,0,0,0,0,0,0,0,0,0,0,0,0,-0.7646,-0.7645,-0.7635,-0.7635,-0.7636,-0.7654,-0.7654,-0.7654,-0.7706,-0.7708,-0.7709,-0.771,-0.7729,-0.7728,-0.7728,0,0,0,0,0,0,0,0,0,0,0,0,0,-0.765,-0.7645,-0.7635,-0.7664,-0.7667,-0.7654,-0.7654,-0.7654,-0.7706,-0.7708,-0.7709,-0.7711,-0.7729,-0.7728,-0.7728,-0.7688,0,0,-0.7725,-0.7725,0,0,0,0,0,0,0,0,-0.765,-0.765,-0.7659,-0.7662,-0.7665,-0.768,-0.7665,-0.7666,-0.7706,-0.7691,-0.771,-0.7712,-0.7711,-0.7712,-0.7712,-0.7689,-0.769,-0.7725,-0.7724,-0.7724,-0.7724,0,0,0,0,0,0,0,-0.765,-0.7649,-0.7643,-0.7659,-0.7663,-0.7676,-0.7679,-0.7665,-0.7691,-0.7692,-0.7696,-0.7698,-0.7713,-0.7712,-0.7712,-0.769,-0.7725,-0.7724,-0.7724,-0.7723,-0.7641,-0.7639,0,0,0,0,0,0,-0.7645,-0.7649,-0.7642,-0.7643,-0.7661,-0.7675,-0.7677,-0.7673,-0.7692,-0.7696,-0.7696,-0.77,-0.7713,-0.7713,-0.7713,-0.7672,-0.7724,-0.7723,-0.7723,-0.7643,-0.7641,-0.7639,0,0,0,0,0,0,-0.7645,-0.7644,-0.7641,-0.7647,-0.7648,-0.7673,-0.7667,-0.7673,-0.7672,-0.7694,-0.7699,-0.7691,-0.7714,-0.7714,-0.7695,-0.7673,-0.7723,-0.7722,-0.7645,-0.7642,-0.764,-0.7587,0,0,0,0,0,0,-0.7645,-0.7644,-0.7629,-0.7646,-0.7647,-0.7622,-0.7666,-0.7672,-0.7671,-0.7676,-0.7691,-0.7695,-0.7716,-0.7696,-0.7694,-0.7673,-0.7722,-0.7647,-0.7643,-0.764,-0.7591,-0.7583,-0.7576,0,0,0,0,0,-0.7645,-0.7612,-0.7628,-0.7627,-0.7629,-0.7621,-0.7621,-0.7646,-0.7668,-0.7654,-0.7669,-0.7694,-0.7675,-0.7694,-0.7692,-0.767,-0.7648,-0.7644,-0.7641,-0.7594,-0.7584,-0.7576,0,0,0,0,0,0,-0.7591,-0.7615,-0.7632,-0.7604,-0.761,-0.763,-0.7612,-0.7634,-0.7634,-0.7639,-0.7669,-0.7672,-0.7649,-0.7657,-0.7677,-0.7635,-0.7666,-0.7662,-0.7631,-0.7622,-0.7615,-0.7615,-0.7721,0,0,0,0,0,-0.7575,-0.7567,-0.7588,-0.7561,-0.7563,-0.7587,-0.7584,-0.7603,-0.761,-0.7613,-0.7626,-0.7633,-0.7629,-0.7625,-0.7622,-0.7591,-0.7597,-0.7575,-0.7568,-0.7562,-0.7559,-0.7546,-0.7538,-0.7626,-0.7626,-0.7626,0,0,-0.7544,-0.7556,-0.7548,-0.755,-0.7557,-0.7549,-0.7589,-0.7577,-0.7571,-0.7611,-0.7595,-0.7605,-0.7614,-0.759,-0.7579,-0.7596,-0.7535,-0.7557,-0.7552,-0.7552,-0.7541,-0.7533,-0.7525,-0.7624,-0.7624,-0.7624,0,0,-0.7482,-0.7489,-0.7469,-0.7475,-0.7486,-0.7502,-0.7497,-0.7514,-0.7522,-0.7506,-0.7537,-0.753,-0.7521,-0.7528,-0.753,-0.7473,-0.7497,-0.7471,-0.7433,-0.7421,-0.7414,-0.7408,-0.739,-0.7383,-0.7467,-0.7467,-0.7467,0,-0.7442,-0.743,-0.7456,-0.7443,-0.7444,-0.748,-0.7461,-0.7466,-0.7474,-0.7475,-0.7492,-0.7484,-0.7493,-0.7472,-0.7458,-0.7457,-0.7455,-0.747,-0.7412,-0.7407,-0.7402,-0.7386,-0.7379,-0.7464,-0.7464,-0.7464,-0.7465,0,-0.7381,-0.7372,-0.7354,-0.7363,-0.7362,-0.7345,-0.737,-0.7366,-0.7384,-0.7399,-0.7384,-0.7395,-0.7397,-0.7393,-0.741,-0.7375,-0.7385,-0.7407,-0.744,-0.739,-0.7375,-0.7369,-0.7459,-0.746,-0.7461,-0.7462,0,0,-0.7286,-0.7311,-0.7304,-0.731,-0.7324,-0.7319,-0.7304,-0.7307,-0.7304,-0.7308,-0.7299,-0.7291,-0.7313,-0.7315,-0.7333,-0.7322,-0.728,-0.7346,-0.7347,-0.7336,-0.7246,-0.7231,-0.7223,-0.7295,-0.7294,-0.7293,-0.7246,0,-0.7231,-0.7209,-0.7233,-0.7207,-0.7201,-0.7235,-0.7224,-0.7232,-0.7245,-0.7242,-0.7257,-0.7253,-0.7279,-0.7281,-0.7271,-0.7287,-0.7263,-0.729,-0.7289,-0.7289,-0.7289,-0.7215,-0.72,-0.7155,-0.724,-0.7239,-0.7238,0,-0.7164,-0.7167,-0.714,-0.7159,-0.7157,-0.7146,-0.7152,-0.7148,-0.7158,-0.7169,-0.7172,-0.7195,-0.7184,-0.7214,-0.72,-0.7219,-0.7219,-0.7227,-0.7226,-0.7229,-0.7262,-0.7219,-0.714,-0.7135,-0.7229,-0.723,-0.723,0,-0.7102,-0.7099,-0.7084,-0.7087,-0.7107,-0.7099,-0.7107,-0.712,-0.712,-0.7124,-0.7126,-0.7128,-0.713,-0.7132,-0.7155,-0.7174,-0.714,-0.7171,-0.7151,-0.7151,-0.7144,-0.7145,-0.7067,-0.7139,-0.7139,-0.714,-0.714,0,-0.7039,-0.7023,-0.7057,-0.7047,-0.703,-0.7058,-0.704,-0.7052,-0.7062,-0.7057,-0.7086,-0.708,-0.711,-0.7108,-0.7126,-0.7114,-0.7114,-0.7124,-0.7129,-0.7123,-0.7122,-0.7126,-0.713,-0.7138,-0.7138,-0.7139,-0.7139,0,-0.6968,-0.699,-0.6976,-0.6997,-0.7002,-0.6989,-0.7007,-0.7,-0.7015,-0.7008,-0.7008,-0.7033,-0.7032,-0.7055,-0.7058,-0.707,-0.7052,-0.7061,-0.7049,-0.7053,-0.7033,-0.7035,-0.6957,-0.695,-0.7023,-0.7023,-0.7022,0,-0.6929,-0.6917,-0.6937,-0.6936,-0.6943,-0.694,-0.6941,-0.6967,-0.6968,-0.698,-0.6972,-0.6974,-0.6977,-0.6974,-0.6993,-0.6996,-0.7008,-0.698,-0.7009,-0.7004,-0.7011,-0.7013,-0.7013,-0.6975,-0.6974,-0.6973,-0.6973,0,-0.6857,-0.6869,-0.6869,-0.6874,-0.6875,-0.688,-0.6887,-0.6884,-0.6913,-0.6912,-0.6912,-0.6914,-0.6919,-0.6921,-0.6928,-0.6938,-0.6961,-0.6963,-0.6959,-0.6954,-0.6949,-0.6955,-0.7036,-0.6966,-0.6966,-0.6967,-0.6967,-0.6967,-0.6803,-0.6795,-0.6809,-0.6809,-0.6817,-0.6823,-0.6819,-0.6834,-0.6834,-0.6841,-0.6856,-0.6854,-0.6867,-0.6879,-0.6886,-0.6886,-0.69,-0.6893,-0.6892,-0.6891,-0.6889,-0.6946,-0.6887,-0.6887,-0.6887,-0.6888,-0.6888,0,-0.6735,-0.6746,-0.6746,-0.6756,-0.6756,-0.6777,-0.6786,-0.6786,-0.6784,-0.6794,-0.6797,-0.6798,-0.6801,-0.6819,-0.6825,-0.6821,-0.6832,-0.6822,-0.6824,-0.6826,-0.6874,-0.6879,-0.6813,-0.6813,-0.6813,-0.6813,-0.6813,-0.6813,-0.6701,-0.669,-0.6703,-0.6697,-0.6708,-0.6707,-0.6711,-0.6717,-0.6726,-0.6726,-0.6729,-0.6741,-0.6755,-0.6762,-0.6766,-0.6771,-0.6773,-0.676,-0.677,-0.6815,-0.6822,-0.6829,-0.6834,-0.676,-0.6759,-0.6722,-0.6722,-0.6721]}]]